Find STARLINK-37938

NORAD ID: 799500998 Int'l Des: 2026-135Y Constellation: starlink operational

Aktuelle Ansicht

3D-Globus wird geladen...

About STARLINK-37938

STARLINK-37938 (NORAD 799500998) is a starlink constellation satellite launched Jun 8, 2026

Über STARLINK-37938

Beschreibung wird geladen...

Nächste Überflüge

Passes for default location (London). Set your location on the main map for personalized predictions.

Höhenverlauf

Loading altitude history...

Zweizeiliger Elementsatz

1 99999C 2026135Y 26167.15326389 .00419970 00000-0 644310-4 0 1672
2 99999 97.2791 193.9657 0010836 262.3386 254.0331 16.04008188 15
Epoch: 16. Juni 2026 • Age: 3 hours